Leesburg, FL

9:55 PM EDT on July 22, 2017 (GMT -0400)
Leesburg Regional

Weather History for KLEE - December, 2012

Change the Weather History Date:

Monday, December 31, 2012

  Actual Average Record
Temperature  
Mean Temperature 58 °F -  
Max Temperature 73 °F 69 °F 83 °F (1990)
Min Temperature 42 °F 50 °F 28 °F (2000)
Degree Days  
Heating Degree Days 8    
Growing Degree Days 8 (Base 50)    
Moisture  
Dew Point 47 °F    
Average Humidity 73    
Maximum Humidity 96    
Minimum Humidity 49    
Precipitation  
Precipitation 0.00 in - - ()
Sea Level Pressure  
Sea Level Pressure 30.30 in    
Wind  
Wind Speed 4 mph (ENE)    
Max Wind Speed 9 mph    
Max Gust Speed -    
Visibility 10 miles    
Events      
Averages and records for this station are not official NWS values.
T = Trace of Precipitation, MM = Missing Value Source: NWS Daily Summary

Daily Weather History Graph

Daily Weather History Graph

Search for Another Location

Airport or City:

Trip Planner

Search our weather history database for the weather conditions in past years. The results will help you decide how hot, cold, wet, or windy it might be!

Date:

Astronomy

Dec. 31, 2012 Rise Set
Actual Time 7:20 AM EST 5:40 PM EST
Civil Twilight 6:54 AM EST 6:06 PM EST
Nautical Twilight 6:24 AM EST 6:36 PM EST
Astronomical Twilight 5:56 AM EST 7:05 PM EST
Moon 8:52 PM EST (12/31) 9:16 AM EST (12/31)
Length of Visible Light 11h 12m
Length of Day
10h 20m
Waning Gibbous, 90% of the Moon is Illuminated
Dec 31
Waning Gibbous
Jan 4
Last Quarter
Jan 11
New
Jan 18
First Quarter
Jan 26
Full

Hourly Weather History & Observations

Time (EST) Temp. Windchill Dew Point Humidity Pressure Visibility Wind Dir Wind Speed Gust Speed Precip Events Conditions
12:53 AM 44.1 °F 40.8 °F 39.0 °F 82% 30.36 in 10.0 mi NNE 5.8 mph - N/A   Clear
1:53 AM 44.1 °F - 39.0 °F 82% 30.34 in 10.0 mi Calm Calm - N/A   Clear
2:53 AM 42.1 °F - 39.0 °F 89% 30.34 in 10.0 mi Calm Calm - N/A   Clear
3:53 AM 43.0 °F 39.5 °F 39.0 °F 86% 30.35 in 10.0 mi North 5.8 mph - N/A   Clear
4:53 AM 42.1 °F 39.2 °F 39.0 °F 89% 30.34 in 10.0 mi North 4.6 mph - N/A   Clear
5:53 AM 42.1 °F 40.2 °F 39.0 °F 89% 30.34 in 10.0 mi NNW 3.5 mph - N/A   Partly Cloudy
6:53 AM 42.1 °F 39.2 °F 39.9 °F 92% 30.35 in 10.0 mi North 4.6 mph - N/A   Mostly Cloudy
7:53 AM 43.0 °F - 41.0 °F 93% 30.35 in 9.0 mi Calm Calm - N/A   Partly Cloudy
8:53 AM 48.9 °F - 43.0 °F 80% 30.37 in 10.0 mi North 3.5 mph - N/A   Clear
9:53 AM 57.0 °F - 46.9 °F 69% 30.38 in 10.0 mi NNE 3.5 mph - N/A   Clear
10:53 AM 66.0 °F - 50.0 °F 56% 30.38 in 10.0 mi North 4.6 mph - N/A   Clear
11:53 AM 68.0 °F - 51.1 °F 55% 30.34 in 10.0 mi Calm Calm - N/A   Clear
12:53 PM 70.0 °F - 52.0 °F 53% 30.29 in 10.0 mi South 6.9 mph - N/A   Clear
1:53 PM 72.0 °F - 54.0 °F 53% 30.25 in 10.0 mi SSE 9.2 mph - N/A   Clear
2:53 PM 73.0 °F - 53.1 °F 49% 30.24 in 10.0 mi South 4.6 mph - N/A   Clear
3:53 PM 73.0 °F - 53.1 °F 49% 30.23 in 10.0 mi SSE 6.9 mph - N/A   Clear
4:53 PM 71.1 °F - 53.1 °F 53% 30.22 in 10.0 mi SSE 5.8 mph - N/A   Clear
5:53 PM 66.0 °F - 54.0 °F 65% 30.22 in 10.0 mi SE 3.5 mph - N/A   Clear
6:53 PM 64.9 °F - 54.0 °F 68% 30.24 in 10.0 mi East 4.6 mph - N/A   Overcast
7:53 PM 64.0 °F - 55.0 °F 73% 30.24 in 10.0 mi East 3.5 mph - N/A   Partly Cloudy
10:53 PM 57.0 °F - 55.0 °F 93% 30.24 in 10.0 mi Calm Calm - N/A   Clear
11:53 PM 55.0 °F - 54.0 °F 96% 30.25 in 4.0 mi Calm Calm - N/A   Clear